IRIDIUM 33 DEB, 35631

Orbit data source: Space-Track

IRIDIUM 33 DEB, 35631 is space debris in LEO originally from a launch on Sun, 14 Sep 1997 UTC launched from the Tyuratam Missile And Space Complex (TTMTR). The debris from Iridium 33, an American commercial communications satellite, has been tracked extensively since its accidental collision with the defunct Russian satellite Cosmos 2251 in 2009. This event, occurring at high speed in low Earth orbit (LEO), generated thousands of pieces of space debris, significantly increasing the risk of further collisions. The Iridium 33 debris cloud has impacted space traffic management and orbital debris mitigation strategies, making it a subject of ongoing study in space situational awareness.

Loading next visibility...
Identifier
35631, 1997-051RD
Orbit
LEO
Country
Flag of USUS
Related business
Manufacturer
Unknown
Mission
Spacecraft
Bus & Motor
Unknown
Mass
Unknown
Launch date (UTC)
1997-09-14 (29 years ago)
Launch vehicle
Unknown
Launch site
Tyuratam Missile And Space Complex (TTMTR)
Object type
Payload
Rocket body
Debris
Shape & HBR
Unknown shape, 0.1 m
Radar Cross Section
Small (<0.1 m²)

Expand to show TLE details & history
Last TLE update: 3 days ago

TLE from 3 days ago
0 IRIDIUM 33 DEB
1 35631U 97051RD  26167.15705946  .00000723  00000-0  18984-3 0  9994
2 35631  86.3661 301.1129 0015538 216.8219 320.5839 14.47807788898793
Epoch: 2026-06-16T03:46Z
TLE epoch observation values (Epoch: 2026-06-16T03:46:09.937Z)
Latitude
2.59812°
Longitude
159.97414°
Altitude
727.057 km
Speed
7.496 km/s
True Right ascension
08h 03m 47s
True Declination
2° 34' 57"
Sunlit
Object was in daylight at epoch
Visualization orbit readout
Latitude
Unknown
Longitude
Unknown
Altitude
Unknown
Speed
Unknown
Apparent Right ascension
Unknown
Apparent Declination
Unknown
Sunlit
N/A
Visualization observer readout
Local Sidereal Time
07:09:20
Azimuth
Unknown
Elevation
Unknown
Doppler factor
Unknown
Orbital elements
Apogee altitude
740.808 km
Perigee altitude
718.719 km
Semi-major axis
7,107.9 km
Eccentricity
0.00155
Inclination
86.3661°
RAAN
301.1129°
Arg. of periapsis
216.8219°
True anomaly
320.47068°
Mean anomaly
320.5839°
Eccentric anomaly
320.52731°
Mean motion
3.62186 °/min
Orbital period
99.4 mins
BSTAR
0.00018984
Loading maneuver chart data...
Computing Atmospheric mass density...

Documentation

Showing up to 5 results
|